Time,TemperatureF,DewpointF,PressureIn,WindDirection,WindDirectionDegrees,WindSpeedMPH,WindSpeedGustMPH,Humidity,HourlyPrecipIn,Conditions,Clouds,dailyrainin,SolarRadiationWatts/m^2,SoftwareType,DateUTC
2013-07-12 00:00:00,72.2,68.8,29.69,West,263,0.0,8.0,89,0.00,,---,0.00,0.00,VWS V14.00,2013-07-12 04:00:00,
2013-07-12 00:01:00,56.9,54.3,29.96,SSW,200,0.0,1.0,91,0.00,,---,0.27,0.00,VWS V14.00,2013-07-12 04:01:00,
2013-07-12 00:06:00,56.9,54.3,29.96,SSW,200,0.0,1.0,91,0.00,,---,0.27,0.00,VWS V14.00,2013-07-12 04:06:00,
2013-07-12 00:11:00,56.7,54.1,29.96,SSW,200,0.0,1.0,91,0.00,,---,0.27,0.00,VWS V14.00,2013-07-12 04:11:00,
2013-07-12 00:16:00,56.7,54.1,29.96,SSW,200,0.0,1.0,91,0.00,,---,0.27,0.00,VWS V14.00,2013-07-12 04:16:00,
2013-07-12 00:21:00,56.7,54.1,29.96,SSW,200,0.0,1.0,91,0.00,,---,0.27,0.00,VWS V14.00,2013-07-12 04:21:00,
2013-07-12 00:26:00,56.6,54.0,29.96,SSW,200,0.0,0.0,91,0.00,,---,0.27,0.00,VWS V14.00,2013-07-12 04:26:00,
2013-07-12 00:30:00,71.7,68.0,29.70,SSW,209,4.0,9.0,88,0.00,,---,0.00,0.00,VWS V14.00,2013-07-12 04:30:00,
2013-07-12 00:31:00,56.6,54.0,29.96,SSW,200,0.0,0.0,91,0.00,,---,0.27,0.00,VWS V14.00,2013-07-12 04:31:00,
2013-07-12 00:36:00,56.4,53.8,29.96,SSW,200,0.0,0.0,91,0.00,,---,0.27,0.00,VWS V14.00,2013-07-12 04:36:00,
2013-07-12 00:41:00,56.3,53.7,29.96,SSW,200,0.0,0.0,91,0.00,,---,0.27,0.00,VWS V14.00,2013-07-12 04:41:00,
2013-07-12 00:46:00,56.0,53.4,29.96,SSW,200,0.0,0.0,91,0.00,,---,0.27,0.00,VWS V14.00,2013-07-12 04:46:00,
2013-07-12 00:51:00,55.7,53.1,29.96,SSW,200,0.0,0.0,91,0.00,,---,0.27,0.00,VWS V14.00,2013-07-12 04:51:00,
2013-07-12 00:56:00,55.7,53.1,29.96,SSW,200,0.0,0.0,91,0.00,,---,0.27,0.00,VWS V14.00,2013-07-12 04:56:00,
2013-07-12 01:00:00,71.3,67.2,29.70,South,176,0.0,7.0,87,0.00,,---,0.00,0.00,VWS V14.00,2013-07-12 05:00:00,
2013-07-12 01:01:00,55.7,53.4,29.96,SSW,200,0.0,0.0,92,0.00,,---,0.27,0.00,VWS V14.00,2013-07-12 05:01:00,
2013-07-12 01:06:00,55.8,53.5,29.96,SSW,200,0.0,0.0,92,0.00,,---,0.27,0.00,VWS V14.00,2013-07-12 05:06:00,
2013-07-12 01:11:00,55.7,53.4,29.96,SSW,200,0.0,0.0,92,0.00,,---,0.27,0.00,VWS V14.00,2013-07-12 05:11:00,
2013-07-12 01:16:00,55.6,53.3,29.96,SSW,200,0.0,0.0,92,0.00,,---,0.27,0.00,VWS V14.00,2013-07-12 05:16:00,
2013-07-12 01:21:00,55.5,53.2,29.96,SSW,200,0.0,0.0,92,0.00,,---,0.27,0.00,VWS V14.00,2013-07-12 05:21:00,
2013-07-12 01:26:00,55.5,53.2,29.96,SSW,200,0.0,0.0,92,0.00,,---,0.27,0.00,VWS V14.00,2013-07-12 05:26:00,
2013-07-12 01:30:00,70.7,67.0,29.70,SSW,201,2.0,4.0,88,0.00,,---,0.00,0.00,VWS V14.00,2013-07-12 05:30:00,
2013-07-12 01:32:00,55.6,53.3,29.97,SSW,200,0.0,0.0,92,0.00,,---,0.27,0.00,VWS V14.00,2013-07-12 05:32:00,
2013-07-12 01:37:00,55.6,53.3,29.97,SSW,200,0.0,1.0,92,0.00,,---,0.27,0.00,VWS V14.00,2013-07-12 05:37:00,
2013-07-12 01:42:00,55.4,53.1,29.97,SSW,200,0.0,1.0,92,0.00,,---,0.27,0.00,VWS V14.00,2013-07-12 05:42:00,
2013-07-12 01:47:00,55.4,53.1,29.97,SSW,200,0.0,1.0,92,0.00,,---,0.27,0.00,VWS V14.00,2013-07-12 05:47:00,
2013-07-12 01:52:00,55.4,53.1,29.97,SSW,200,0.0,0.0,92,0.00,,---,0.27,0.00,VWS V14.00,2013-07-12 05:52:00,
2013-07-12 01:58:00,55.5,53.2,29.97,SSW,200,0.0,1.0,92,0.00,,---,0.27,0.00,VWS V14.00,2013-07-12 05:58:00,
2013-07-12 02:00:00,70.2,66.8,29.69,NE,51,1.0,4.0,89,0.00,,---,0.00,0.00,VWS V14.00,2013-07-12 06:00:00,
2013-07-12 02:03:00,55.5,53.2,29.97,SSW,200,0.0,1.0,92,0.00,,---,0.27,0.00,VWS V14.00,2013-07-12 06:03:00,
2013-07-12 02:08:00,55.3,53.0,29.97,SSW,200,0.0,1.0,92,0.00,,---,0.27,0.00,VWS V14.00,2013-07-12 06:08:00,
2013-07-12 02:13:00,55.2,52.9,29.97,SSW,200,0.0,1.0,92,0.00,,---,0.27,0.00,VWS V14.00,2013-07-12 06:13:00,
2013-07-12 02:18:00,55.1,52.8,29.98,SSW,200,1.0,4.0,92,0.00,,---,0.27,0.00,VWS V14.00,2013-07-12 06:18:00,
2013-07-12 02:23:00,55.0,52.7,29.98,SSW,200,0.0,0.0,92,0.00,,---,0.27,0.00,VWS V14.00,2013-07-12 06:23:00,
2013-07-12 02:28:00,54.9,52.6,29.98,SSW,200,0.0,0.0,92,0.00,,---,0.27,0.00,VWS V14.00,2013-07-12 06:28:00,
2013-07-12 02:30:00,69.5,66.4,29.69,NNE,24,0.0,2.0,90,0.01,,---,0.01,0.00,VWS V14.00,2013-07-12 06:30:00,
2013-07-12 02:33:00,54.9,52.6,29.98,SSW,200,0.0,0.0,92,0.00,,---,0.27,0.00,VWS V14.00,2013-07-12 06:33:00,
2013-07-12 02:38:00,54.9,52.6,29.99,SSW,200,0.0,0.0,92,0.00,,---,0.27,0.00,VWS V14.00,2013-07-12 06:38:00,
2013-07-12 02:43:00,54.9,52.6,29.99,SSW,200,0.0,0.0,92,0.00,,---,0.27,0.00,VWS V14.00,2013-07-12 06:43:00,
2013-07-12 02:48:00,54.8,52.5,29.99,SSW,200,1.0,2.0,92,0.00,,---,0.27,0.00,VWS V14.00,2013-07-12 06:48:00,
2013-07-12 02:53:00,54.6,52.3,29.99,SSW,200,1.0,2.0,92,0.00,,---,0.00,0.00,VWS V14.00,2013-07-12 06:53:00,
2013-07-12 02:58:00,54.4,52.1,29.99,SSW,200,0.0,2.0,92,0.00,,---,0.00,0.00,VWS V14.00,2013-07-12 06:58:00,
2013-07-12 03:00:00,69.0,66.3,29.73,SSW,207,2.0,3.0,91,0.01,,---,0.01,0.00,VWS V14.00,2013-07-12 07:00:00,
2013-07-12 03:03:00,54.3,52.0,29.99,SSW,200,0.0,2.0,92,0.00,,---,0.00,0.00,VWS V14.00,2013-07-12 07:03:00,
2013-07-12 03:08:00,54.2,51.9,29.99,SSW,200,0.0,2.0,92,0.00,,---,0.00,0.00,VWS V14.00,2013-07-12 07:08:00,
2013-07-12 03:13:00,54.2,52.2,29.99,SSW,200,0.0,2.0,93,0.00,,---,0.00,0.00,VWS V14.00,2013-07-12 07:13:00,
2013-07-12 03:18:00,54.2,51.9,30.00,SSW,200,0.0,2.0,92,0.00,,---,0.00,0.00,VWS V14.00,2013-07-12 07:18:00,
2013-07-12 03:23:00,54.2,51.9,30.00,SSW,200,0.0,0.0,92,0.00,,---,0.00,0.00,VWS V14.00,2013-07-12 07:23:00,
2013-07-12 03:28:00,54.1,51.8,30.00,SSW,200,0.0,0.0,92,0.00,,---,0.00,0.00,VWS V14.00,2013-07-12 07:28:00,
2013-07-12 03:30:00,68.9,66.5,29.73,SW,236,0.0,4.0,92,0.01,,---,0.01,7.00,VWS V14.00,2013-07-12 07:30:00,
2013-07-12 03:33:00,54.1,51.8,30.00,SSW,200,0.0,0.0,92,0.00,,---,0.00,0.00,VWS V14.00,2013-07-12 07:33:00,
2013-07-12 03:38:00,54.1,51.8,30.00,SSW,200,0.0,0.0,92,0.00,,---,0.00,0.00,VWS V14.00,2013-07-12 07:38:00,
2013-07-12 03:43:00,54.0,51.7,30.00,SSW,200,0.0,0.0,92,0.00,,---,0.00,0.00,VWS V14.00,2013-07-12 07:43:00,
2013-07-12 03:48:00,53.9,51.9,30.00,SSW,200,0.0,0.0,93,0.00,,---,0.00,0.00,VWS V14.00,2013-07-12 07:48:00,
2013-07-12 03:53:00,53.6,51.3,30.00,SSW,200,0.0,0.0,92,0.00,,---,0.00,0.00,VWS V14.00,2013-07-12 07:53:00,
2013-07-12 03:58:00,53.6,51.6,30.00,SSW,200,0.0,0.0,93,0.00,,---,0.00,0.00,VWS V14.00,2013-07-12 07:58:00,
2013-07-12 04:00:00,68.7,66.3,29.74,East,86,0.0,2.0,92,0.10,,---,0.11,12.00,VWS V14.00,2013-07-12 08:00:00,
2013-07-12 04:03:00,53.6,51.6,30.01,SSW,200,2.0,2.0,93,0.00,,---,0.00,0.00,VWS V14.00,2013-07-12 08:03:00,
2013-07-12 04:08:00,53.7,51.7,30.00,SSW,200,0.0,3.0,93,0.00,,---,0.00,0.00,VWS V14.00,2013-07-12 08:08:00,
2013-07-12 04:13:00,53.7,51.7,30.01,SSW,200,0.0,3.0,93,0.00,,---,0.00,0.00,VWS V14.00,2013-07-12 08:13:00,
2013-07-12 04:18:00,53.7,51.7,30.01,SSW,200,0.0,3.0,93,0.00,,---,0.00,0.00,VWS V14.00,2013-07-12 08:18:00,
2013-07-12 04:23:00,53.6,51.6,30.01,SSW,200,0.0,0.0,93,0.00,,---,0.00,0.00,VWS V14.00,2013-07-12 08:23:00,
2013-07-12 04:28:00,53.6,51.6,30.01,SSW,200,0.0,1.0,93,0.00,,---,0.00,0.00,VWS V14.00,2013-07-12 08:28:00,
2013-07-12 04:30:00,68.5,66.1,29.75,SW,236,0.0,7.0,92,0.10,,---,0.11,63.00,VWS V14.00,2013-07-12 08:30:00,
2013-07-12 04:33:00,53.6,51.6,30.01,SSW,200,0.0,1.0,93,0.00,,---,0.00,0.00,VWS V14.00,2013-07-12 08:33:00,
2013-07-12 04:38:00,53.6,51.6,30.01,SSW,200,0.0,1.0,93,0.00,,---,0.00,0.00,VWS V14.00,2013-07-12 08:38:00,
2013-07-12 04:43:00,53.5,51.5,30.02,SSW,200,0.0,1.0,93,0.00,,---,0.00,0.00,VWS V14.00,2013-07-12 08:43:00,
2013-07-12 04:48:00,53.5,51.5,30.02,SSW,200,0.0,1.0,93,0.00,,---,0.00,0.00,VWS V14.00,2013-07-12 08:48:00,
2013-07-12 04:53:00,53.5,51.5,30.02,SSW,200,0.0,0.0,93,0.00,,---,0.00,0.00,VWS V14.00,2013-07-12 08:53:00,
2013-07-12 04:58:00,53.4,51.4,30.02,SSW,200,0.0,0.0,93,0.00,,---,0.00,0.00,VWS V14.00,2013-07-12 08:58:00,
2013-07-12 05:00:00,68.8,66.7,29.76,NW,315,0.0,4.0,93,0.10,,---,0.11,125.00,VWS V14.00,2013-07-12 09:00:00,
2013-07-12 05:03:00,53.2,51.2,30.02,SSW,200,0.0,1.0,93,0.00,,---,0.00,0.00,VWS V14.00,2013-07-12 09:03:00,
2013-07-12 05:08:00,53.3,51.3,30.03,SSW,200,0.0,2.0,93,0.00,,---,0.00,0.00,VWS V14.00,2013-07-12 09:08:00,
2013-07-12 05:13:00,53.2,51.2,30.03,SSW,200,0.0,2.0,93,0.00,,---,0.00,0.00,VWS V14.00,2013-07-12 09:13:00,
2013-07-12 05:18:00,53.4,51.4,30.03,SSW,200,0.0,2.0,93,0.00,,---,0.00,0.00,VWS V14.00,2013-07-12 09:18:00,
2013-07-12 05:24:00,53.5,51.5,30.03,SSW,200,0.0,0.0,93,0.00,,---,0.00,0.00,VWS V14.00,2013-07-12 09:24:00,
2013-07-12 05:29:00,53.5,51.5,30.03,SSW,200,0.0,0.0,93,0.00,,---,0.00,7.00,VWS V14.00,2013-07-12 09:29:00,
2013-07-12 05:30:00,69.2,67.1,29.76,WNW,294,0.0,3.0,93,0.00,,---,0.11,125.00,VWS V14.00,2013-07-12 09:30:00,
2013-07-12 05:34:00,53.6,51.6,30.04,SSW,200,0.0,0.0,93,0.00,,---,0.00,9.00,VWS V14.00,2013-07-12 09:34:00,
2013-07-12 05:39:00,53.6,51.6,30.04,SSW,200,0.0,0.0,93,0.00,,---,0.00,12.00,VWS V14.00,2013-07-12 09:39:00,
2013-07-12 05:44:00,53.6,51.6,30.04,SSW,200,0.0,0.0,93,0.00,,---,0.00,18.00,VWS V14.00,2013-07-12 09:44:00,
2013-07-12 05:49:00,53.6,51.6,30.04,SSW,200,0.0,2.0,93,0.00,,---,0.00,21.00,VWS V14.00,2013-07-12 09:49:00,
2013-07-12 05:54:00,53.5,51.5,30.05,SSW,200,0.0,0.0,93,0.00,,---,0.00,26.00,VWS V14.00,2013-07-12 09:54:00,
2013-07-12 05:59:00,53.5,51.5,30.05,SSW,200,0.0,0.0,93,0.00,,---,0.00,33.00,VWS V14.00,2013-07-12 09:59:00,
2013-07-12 06:00:00,69.2,66.8,29.76,SW,227,1.0,5.0,92,0.00,,---,0.11,95.00,VWS V14.00,2013-07-12 10:00:00,
2013-07-12 06:04:00,53.6,51.6,30.05,SSW,200,0.0,0.0,93,0.00,,---,0.00,40.00,VWS V14.00,2013-07-12 10:04:00,
2013-07-12 06:09:00,53.7,51.7,30.05,SSW,200,0.0,0.0,93,0.00,,---,0.00,47.00,VWS V14.00,2013-07-12 10:09:00,
2013-07-12 06:14:00,53.8,51.8,30.05,SSW,200,0.0,0.0,93,0.00,,---,0.00,56.00,VWS V14.00,2013-07-12 10:14:00,
2013-07-12 06:19:00,53.9,51.9,30.05,SSW,200,0.0,0.0,93,0.00,,---,0.00,65.00,VWS V14.00,2013-07-12 10:19:00,
2013-07-12 06:24:00,54.1,52.1,30.06,SSW,200,0.0,0.0,93,0.00,,---,0.00,77.00,VWS V14.00,2013-07-12 10:24:00,
2013-07-12 06:29:00,54.3,52.3,30.06,SSW,200,0.0,0.0,93,0.00,,---,0.00,88.00,VWS V14.00,2013-07-12 10:29:00,
2013-07-12 06:30:00,69.0,66.6,29.77,South,178,0.0,6.0,92,0.00,,---,0.11,67.00,VWS V14.00,2013-07-12 10:30:00,
2013-07-12 06:34:00,54.7,53.0,30.06,North,11,0.0,3.0,94,0.00,,---,0.00,88.00,VWS V14.00,2013-07-12 10:34:00,
2013-07-12 06:39:00,55.1,53.4,30.06,North,11,0.0,3.0,94,0.00,,---,0.00,88.00,VWS V14.00,2013-07-12 10:39:00,
2013-07-12 06:44:00,55.4,53.7,30.06,North,11,0.0,3.0,94,0.00,,---,0.00,104.00,VWS V14.00,2013-07-12 10:44:00,
2013-07-12 06:49:00,55.7,54.0,30.06,North,11,0.0,3.0,94,0.00,,---,0.00,105.00,VWS V14.00,2013-07-12 10:49:00,
2013-07-12 06:54:00,56.0,54.3,30.06,North,11,0.0,0.0,94,0.00,,---,0.00,125.00,VWS V14.00,2013-07-12 10:54:00,
2013-07-12 06:59:00,56.3,54.6,30.06,North,11,0.0,0.0,94,0.00,,---,0.00,111.00,VWS V14.00,2013-07-12 10:59:00,
2013-07-12 07:00:00,69.3,66.6,29.77,South,184,0.0,6.0,91,0.00,,---,0.11,301.00,VWS V14.00,2013-07-12 11:00:00,
2013-07-12 07:04:00,56.6,54.9,30.06,North,11,0.0,2.0,94,0.00,,---,0.00,127.00,VWS V14.00,2013-07-12 11:04:00,
2013-07-12 07:09:00,56.9,55.2,30.06,North,11,0.0,2.0,94,0.00,,---,0.00,123.00,VWS V14.00,2013-07-12 11:09:00,
2013-07-12 07:14:00,57.2,55.5,30.06,North,11,1.0,2.0,94,0.00,,---,0.00,165.00,VWS V14.00,2013-07-12 11:14:00,
2013-07-12 07:19:00,57.6,55.9,30.06,North,11,0.0,2.0,94,0.00,,---,0.00,227.00,VWS V14.00,2013-07-12 11:19:00,
2013-07-12 07:24:00,58.1,56.4,30.07,North,11,0.0,3.0,94,0.00,,---,0.00,195.00,VWS V14.00,2013-07-12 11:24:00,
2013-07-12 07:29:00,58.4,56.7,30.07,North,11,0.0,3.0,94,0.00,,---,0.00,223.00,VWS V14.00,2013-07-12 11:29:00,
2013-07-12 07:30:00,68.4,64.7,29.78,North,5,0.0,10.0,88,0.08,,---,0.19,84.00,VWS V14.00,2013-07-12 11:30:00,
2013-07-12 07:34:00,58.9,57.2,30.07,NNW,329,3.0,3.0,94,0.00,,---,0.00,309.00,VWS V14.00,2013-07-12 11:34:00,
2013-07-12 07:39:00,59.5,57.8,30.07,NNW,329,0.0,3.0,94,0.00,,---,0.00,318.00,VWS V14.00,2013-07-12 11:39:00,
2013-07-12 07:44:00,59.8,58.1,30.07,NNW,329,0.0,3.0,94,0.00,,---,0.00,294.00,VWS V14.00,2013-07-12 11:44:00,
2013-07-12 07:49:00,60.2,58.5,30.07,NNW,329,0.0,3.0,94,0.00,,---,0.00,246.00,VWS V14.00,2013-07-12 11:49:00,
2013-07-12 07:54:00,60.5,58.8,30.08,NNW,329,1.0,2.0,94,0.00,,---,0.00,355.00,VWS V14.00,2013-07-12 11:54:00,
2013-07-12 07:59:00,61.0,59.3,30.08,NNW,329,1.0,2.0,94,0.00,,---,0.00,299.00,VWS V14.00,2013-07-12 11:59:00,
2013-07-12 08:00:00,67.9,65.2,29.79,West,277,0.0,6.0,91,0.16,,---,0.27,262.00,VWS V14.00,2013-07-12 12:00:00,
2013-07-12 08:04:00,60.8,58.8,30.08,NNW,329,0.0,2.0,93,0.00,,---,0.00,353.00,VWS V14.00,2013-07-12 12:04:00,
2013-07-12 08:09:00,61.3,59.0,30.08,NNW,329,0.0,2.0,92,0.00,,---,0.00,355.00,VWS V14.00,2013-07-12 12:09:00,
2013-07-12 08:15:00,61.6,58.6,30.08,NNW,329,2.0,2.0,90,0.00,,---,0.00,318.00,VWS V14.00,2013-07-12 12:15:00,
2013-07-12 08:20:00,62.3,58.1,30.08,NNW,329,1.0,2.0,86,0.00,,---,0.00,399.00,VWS V14.00,2013-07-12 12:20:00,
2013-07-12 08:25:00,63.2,58.6,30.08,NNW,329,1.0,2.0,85,0.00,,---,0.00,418.00,VWS V14.00,2013-07-12 12:25:00,
2013-07-12 08:30:00,63.8,58.9,30.08,NNW,329,3.0,3.0,84,0.00,,---,0.00,427.00,VWS V14.00,2013-07-12 12:30:00,
2013-07-12 08:35:00,64.4,58.8,30.08,NW,321,1.0,3.0,82,0.00,,---,0.00,436.00,VWS V14.00,2013-07-12 12:35:00,
2013-07-12 08:40:00,64.9,57.5,30.08,NW,321,0.0,3.0,77,0.00,,---,0.00,457.00,VWS V14.00,2013-07-12 12:40:00,
2013-07-12 08:45:00,65.5,57.0,30.08,NW,321,0.0,3.0,74,0.00,,---,0.00,475.00,VWS V14.00,2013-07-12 12:45:00,
2013-07-12 08:50:00,66.4,57.9,30.08,NW,321,0.0,3.0,74,0.00,,---,0.00,466.00,VWS V14.00,2013-07-12 12:50:00,
2013-07-12 08:55:00,67.1,57.8,30.09,NW,319,0.0,2.0,72,0.00,,---,0.00,483.00,VWS V14.00,2013-07-12 12:55:00,
2013-07-12 09:00:00,68.0,58.3,30.09,SW,229,0.0,2.0,71,0.00,,---,0.00,478.00,VWS V14.00,2013-07-12 13:00:00,
2013-07-12 09:05:00,68.5,57.9,30.09,SW,228,0.0,2.0,69,0.00,,---,0.00,471.00,VWS V14.00,2013-07-12 13:05:00,
2013-07-12 09:10:00,68.8,57.8,30.09,West,267,1.0,2.0,68,0.00,,---,0.00,536.00,VWS V14.00,2013-07-12 13:10:00,
2013-07-12 09:15:00,69.4,58.4,30.08,NNW,330,0.0,4.0,68,0.00,,---,0.00,596.00,VWS V14.00,2013-07-12 13:15:00,
2013-07-12 09:20:00,69.7,58.7,30.09,SW,236,0.0,6.0,68,0.00,,---,0.00,499.00,VWS V14.00,2013-07-12 13:20:00,
2013-07-12 09:25:00,70.0,58.5,30.09,SW,236,0.0,1.0,67,0.00,,---,0.00,587.00,VWS V14.00,2013-07-12 13:25:00,
2013-07-12 09:30:00,70.1,58.2,30.08,SW,236,0.0,1.0,66,0.00,,---,0.00,610.00,VWS V14.00,2013-07-12 13:30:00,
2013-07-12 09:35:00,70.6,59.1,30.08,SW,236,0.0,1.0,67,0.00,,---,0.00,642.00,VWS V14.00,2013-07-12 13:35:00,
2013-07-12 09:40:00,70.7,57.9,30.09,SSW,201,1.0,2.0,64,0.00,,---,0.00,647.00,VWS V14.00,2013-07-12 13:40:00,
2013-07-12 09:45:00,70.3,57.6,30.09,SSW,201,0.0,2.0,64,0.00,,---,0.00,659.00,VWS V14.00,2013-07-12 13:45:00,
2013-07-12 09:50:00,70.6,57.0,30.09,ENE,76,1.0,3.0,62,0.00,,---,0.00,663.00,VWS V14.00,2013-07-12 13:50:00,
2013-07-12 09:55:00,70.8,57.2,30.09,East,96,5.0,5.0,62,0.00,,---,0.00,668.00,VWS V14.00,2013-07-12 13:55:00,
2013-07-12 10:00:00,73.1,65.1,29.80,NW,307,4.0,12.0,76,0.00,,---,0.27,304.00,VWS V14.00,2013-07-12 14:00:00,
2013-07-12 10:01:00,71.0,56.9,30.10,ENE,74,3.0,9.0,61,0.00,,---,0.00,670.00,VWS V14.00,2013-07-12 14:01:00,
2013-07-12 10:06:00,70.9,56.8,30.10,East,94,6.0,9.0,61,0.00,,---,0.00,657.00,VWS V14.00,2013-07-12 14:06:00,
2013-07-12 10:11:00,70.4,56.3,30.10,ESE,103,4.0,10.0,61,0.00,,---,0.00,650.00,VWS V14.00,2013-07-12 14:11:00,
2013-07-12 10:16:00,70.4,56.3,30.10,ENE,59,5.0,10.0,61,0.00,,---,0.00,712.00,VWS V14.00,2013-07-12 14:16:00,
2013-07-12 10:21:00,70.4,56.3,30.10,SE,137,0.0,10.0,61,0.00,,---,0.00,707.00,VWS V14.00,2013-07-12 14:21:00,
2013-07-12 10:26:00,70.5,56.4,30.10,North,11,2.0,5.0,61,0.00,,---,0.00,728.00,VWS V14.00,2013-07-12 14:26:00,
2013-07-12 10:30:00,72.4,64.8,29.80,WNW,292,4.0,8.0,77,0.00,,---,0.27,403.00,VWS V14.00,2013-07-12 14:30:00,
2013-07-12 10:31:00,70.8,56.7,30.10,North,360,1.0,7.0,61,0.00,,---,0.00,729.00,VWS V14.00,2013-07-12 14:31:00,
2013-07-12 10:36:00,71.2,57.1,30.09,ESE,113,3.0,7.0,61,0.00,,---,0.00,633.00,VWS V14.00,2013-07-12 14:36:00,
2013-07-12 10:41:00,70.7,56.6,30.09,South,169,0.0,7.0,61,0.00,,---,0.00,763.00,VWS V14.00,2013-07-12 14:41:00,
2013-07-12 10:46:00,71.5,56.4,30.09,East,81,3.0,7.0,59,0.00,,---,0.00,784.00,VWS V14.00,2013-07-12 14:46:00,
2013-07-12 10:51:00,71.4,56.8,30.09,SE,135,0.0,7.0,60,0.00,,---,0.00,719.00,VWS V14.00,2013-07-12 14:51:00,
2013-07-12 10:56:00,71.5,58.3,30.09,SE,128,1.0,3.0,63,0.00,,---,0.00,693.00,VWS V14.00,2013-07-12 14:56:00,
2013-07-12 11:00:00,74.7,60.8,29.80,WNW,283,6.0,10.0,62,0.00,,---,0.27,1092.00,VWS V14.00,2013-07-12 15:00:00,
2013-07-12 11:01:00,72.1,57.0,30.09,ESE,113,5.0,8.0,59,0.00,,---,0.00,751.00,VWS V14.00,2013-07-12 15:01:00,
2013-07-12 11:06:00,72.2,57.1,30.09,ESE,111,1.0,8.0,59,0.00,,---,0.00,745.00,VWS V14.00,2013-07-12 15:06:00,
2013-07-12 11:11:00,72.1,57.0,30.09,SE,131,1.0,8.0,59,0.00,,---,0.00,729.00,VWS V14.00,2013-07-12 15:11:00,
2013-07-12 11:16:00,72.1,56.5,30.09,South,171,1.0,8.0,58,0.00,,---,0.00,849.00,VWS V14.00,2013-07-12 15:16:00,
2013-07-12 11:21:00,72.3,57.2,30.09,ESE,106,1.0,8.0,59,0.00,,---,0.00,819.00,VWS V14.00,2013-07-12 15:21:00,
2013-07-12 11:26:00,72.7,58.0,30.09,SSE,148,2.0,2.0,60,0.00,,---,0.00,858.00,VWS V14.00,2013-07-12 15:26:00,
2013-07-12 11:30:00,75.8,61.9,29.80,WNW,297,3.0,14.0,62,0.00,,---,0.27,192.00,VWS V14.00,2013-07-12 15:30:00,
2013-07-12 11:31:00,72.6,56.5,30.09,South,187,1.0,6.0,57,0.00,,---,0.00,868.00,VWS V14.00,2013-07-12 15:31:00,
2013-07-12 11:36:00,72.9,58.2,30.09,East,96,7.0,7.0,60,0.00,,---,0.00,858.00,VWS V14.00,2013-07-12 15:36:00,
2013-07-12 11:41:00,73.2,57.5,30.09,South,178,4.0,7.0,58,0.00,,---,0.00,838.00,VWS V14.00,2013-07-12 15:41:00,
2013-07-12 11:46:00,72.8,57.2,30.09,South,180,1.0,7.0,58,0.00,,---,0.00,795.00,VWS V14.00,2013-07-12 15:46:00,
2013-07-12 11:51:00,72.9,56.3,30.09,South,184,3.0,7.0,56,0.00,,---,0.00,926.00,VWS V14.00,2013-07-12 15:51:00,
2013-07-12 11:56:00,72.7,56.1,30.09,ENE,68,0.0,4.0,56,0.00,,---,0.00,865.00,VWS V14.00,2013-07-12 15:56:00,
2013-07-12 12:00:00,75.8,58.5,29.81,WNW,292,3.0,13.0,55,0.00,,---,0.27,877.00,VWS V14.00,2013-07-12 16:00:00,
2013-07-12 12:01:00,73.3,57.2,30.09,SSW,207,1.0,4.0,57,0.00,,---,0.00,882.00,VWS V14.00,2013-07-12 16:01:00,
2013-07-12 12:06:00,73.7,58.0,30.09,ESE,115,3.0,5.0,58,0.00,,---,0.00,895.00,VWS V14.00,2013-07-12 16:06:00,
2013-07-12 12:11:00,73.7,56.5,30.09,South,169,2.0,6.0,55,0.00,,---,0.00,937.00,VWS V14.00,2013-07-12 16:11:00,
2013-07-12 12:16:00,73.9,56.7,30.09,South,180,0.0,6.0,55,0.00,,---,0.00,858.00,VWS V14.00,2013-07-12 16:16:00,
2013-07-12 12:22:00,74.6,58.4,30.09,WSW,247,1.0,1.0,57,0.00,,---,0.00,969.00,VWS V14.00,2013-07-12 16:22:00,
2013-07-12 12:28:00,74.2,59.0,30.09,SSW,202,0.0,3.0,59,0.00,,---,0.00,323.00,VWS V14.00,2013-07-12 16:28:00,
2013-07-12 12:30:00,76.8,59.9,29.81,WNW,302,6.0,14.0,56,0.00,,---,0.27,944.00,VWS V14.00,2013-07-12 16:30:00,
2013-07-12 12:33:00,74.2,59.4,30.09,NW,317,2.0,4.0,60,0.00,,---,0.00,343.00,VWS V14.00,2013-07-12 16:33:00,
2013-07-12 12:38:00,74.3,59.1,30.09,SW,223,0.0,4.0,59,0.00,,---,0.00,348.00,VWS V14.00,2013-07-12 16:38:00,
2013-07-12 12:43:00,73.7,59.4,30.09,SSE,168,5.0,7.0,61,0.00,,---,0.00,1078.00,VWS V14.00,2013-07-12 16:43:00,
2013-07-12 12:48:00,73.9,61.8,30.08,WSW,244,0.0,7.0,66,0.00,,---,0.00,320.00,VWS V14.00,2013-07-12 16:48:00,
2013-07-12 12:53:00,74.1,60.7,30.08,WNW,289,1.0,4.0,63,0.00,,---,0.00,285.00,VWS V14.00,2013-07-12 16:53:00,
2013-07-12 12:58:00,73.9,60.5,30.08,NW,317,0.0,7.0,63,0.00,,---,0.00,253.00,VWS V14.00,2013-07-12 16:58:00,
2013-07-12 13:00:00,73.9,61.8,29.82,NNW,335,5.0,16.0,66,0.00,,---,0.27,320.00,VWS V14.00,2013-07-12 17:00:00,
2013-07-12 13:03:00,73.5,60.6,30.08,North,349,2.0,7.0,64,0.00,,---,0.00,292.00,VWS V14.00,2013-07-12 17:03:00,
2013-07-12 13:08:00,73.5,60.6,30.08,NW,308,4.0,8.0,64,0.00,,---,0.00,469.00,VWS V14.00,2013-07-12 17:08:00,
2013-07-12 13:13:00,74.9,61.9,30.08,NW,313,0.0,8.0,64,0.00,,---,0.00,1035.00,VWS V14.00,2013-07-12 17:13:00,
2013-07-12 13:18:00,74.9,61.0,30.08,NNW,327,0.0,8.0,62,0.00,,---,0.00,311.00,VWS V14.00,2013-07-12 17:18:00,
2013-07-12 13:23:00,74.4,61.4,30.08,NW,310,3.0,5.0,64,0.00,,---,0.00,311.00,VWS V14.00,2013-07-12 17:23:00,
2013-07-12 13:29:00,74.0,61.9,30.08,WNW,300,6.0,6.0,66,0.00,,---,0.00,364.00,VWS V14.00,2013-07-12 17:29:00,
2013-07-12 13:30:00,72.6,61.9,29.83,NW,317,3.0,12.0,69,0.00,,---,0.27,125.00,VWS V14.00,2013-07-12 17:30:00,
2013-07-12 13:34:00,73.9,62.7,30.08,NNW,340,0.0,6.0,68,0.00,,---,0.00,315.00,VWS V14.00,2013-07-12 17:34:00,
2013-07-12 13:39:00,74.0,62.8,30.08,SW,234,2.0,6.0,68,0.00,,---,0.00,403.00,VWS V14.00,2013-07-12 17:39:00,
2013-07-12 13:44:00,74.6,64.2,30.08,SW,215,5.0,6.0,70,0.00,,---,0.00,251.00,VWS V14.00,2013-07-12 17:44:00,
2013-07-12 13:49:00,74.5,63.7,30.08,WSW,242,1.0,6.0,69,0.00,,---,0.00,715.00,VWS V14.00,2013-07-12 17:49:00,
2013-07-12 13:54:00,75.9,64.2,30.08,NW,313,4.0,6.0,67,0.00,,---,0.00,1005.00,VWS V14.00,2013-07-12 17:54:00,
2013-07-12 13:59:00,75.9,64.6,30.08,WNW,290,9.0,11.0,68,0.00,,---,0.00,1055.00,VWS V14.00,2013-07-12 17:59:00,
2013-07-12 14:00:00,73.0,60.5,29.84,NNE,19,4.0,13.0,65,0.00,,---,0.27,584.00,VWS V14.00,2013-07-12 18:00:00,
2013-07-12 14:04:00,75.8,64.9,30.08,NW,306,4.0,11.0,69,0.00,,---,0.00,1037.00,VWS V14.00,2013-07-12 18:04:00,
2013-07-12 14:09:00,75.7,64.0,30.08,SSW,201,5.0,11.0,67,0.00,,---,0.00,629.00,VWS V14.00,2013-07-12 18:09:00,
2013-07-12 14:14:00,75.6,63.5,30.08,SW,232,0.0,11.0,66,0.00,,---,0.00,821.00,VWS V14.00,2013-07-12 18:14:00,
2013-07-12 14:19:00,76.6,64.4,30.08,SSW,202,3.0,11.0,66,0.00,,---,0.00,687.00,VWS V14.00,2013-07-12 18:19:00,
2013-07-12 14:25:00,76.8,64.2,30.08,SW,222,1.0,4.0,65,0.00,,---,0.00,257.00,VWS V14.00,2013-07-12 18:25:00,
2013-07-12 14:30:00,76.1,64.8,30.08,SW,218,0.0,4.0,68,0.00,,---,0.00,236.00,VWS V14.00,2013-07-12 18:30:00,
2013-07-12 14:35:00,75.4,63.7,30.08,West,277,2.0,4.0,67,0.00,,---,0.00,248.00,VWS V14.00,2013-07-12 18:35:00,
2013-07-12 14:40:00,75.1,64.7,30.08,SSW,210,3.0,5.0,70,0.00,,---,0.00,974.00,VWS V14.00,2013-07-12 18:40:00,
2013-07-12 14:45:00,75.9,64.6,30.09,NW,321,3.0,7.0,68,0.00,,---,0.00,313.00,VWS V14.00,2013-07-12 18:45:00,
2013-07-12 14:50:00,75.6,63.0,30.09,WNW,297,3.0,7.0,65,0.00,,---,0.00,526.00,VWS V14.00,2013-07-12 18:50:00,
2013-07-12 14:55:00,75.3,63.2,30.09,NW,313,6.0,7.0,66,0.00,,---,0.00,343.00,VWS V14.00,2013-07-12 18:55:00,
2013-07-12 15:00:00,74.8,62.7,30.09,NNE,29,3.0,7.0,66,0.00,,---,0.00,318.00,VWS V14.00,2013-07-12 19:00:00,
2013-07-12 15:06:00,74.8,62.7,30.09,WNW,289,3.0,7.0,66,0.00,,---,0.00,301.00,VWS V14.00,2013-07-12 19:06:00,
2013-07-12 15:11:00,74.9,62.8,30.08,NNW,340,2.0,7.0,66,0.00,,---,0.00,287.00,VWS V14.00,2013-07-12 19:11:00,
2013-07-12 15:16:00,74.8,62.7,30.08,NNW,343,0.0,8.0,66,0.00,,---,0.00,278.00,VWS V14.00,2013-07-12 19:16:00,
2013-07-12 15:21:00,74.9,62.3,30.09,North,349,0.0,8.0,65,0.00,,---,0.00,329.00,VWS V14.00,2013-07-12 19:21:00,
2013-07-12 15:26:00,75.4,64.1,30.08,NNW,344,1.0,5.0,68,0.00,,---,0.00,248.00,VWS V14.00,2013-07-12 19:26:00,
2013-07-12 15:30:00,70.9,57.7,29.86,WNW,301,4.0,10.0,63,0.00,,---,0.27,58.00,VWS V14.00,2013-07-12 19:30:00,
2013-07-12 15:32:00,75.3,64.8,30.08,NNW,342,2.0,5.0,70,0.00,,---,0.00,445.00,VWS V14.00,2013-07-12 19:32:00,
2013-07-12 15:37:00,75.7,64.8,30.08,WNW,286,3.0,5.0,69,0.00,,---,0.00,958.00,VWS V14.00,2013-07-12 19:37:00,
2013-07-12 15:42:00,76.4,64.2,30.08,NW,312,4.0,8.0,66,0.00,,---,0.00,923.00,VWS V14.00,2013-07-12 19:42:00,
2013-07-12 15:47:00,76.3,63.7,30.08,West,259,1.0,8.0,65,0.00,,---,0.00,338.00,VWS V14.00,2013-07-12 19:47:00,
2013-07-12 15:52:00,75.9,64.2,30.08,West,264,0.0,1.0,67,0.00,,---,0.00,455.00,VWS V14.00,2013-07-12 19:52:00,
2013-07-12 15:58:00,75.9,64.2,30.08,NW,326,5.0,8.0,67,0.00,,---,0.00,172.00,VWS V14.00,2013-07-12 19:58:00,
2013-07-12 16:00:00,70.6,59.5,29.86,North,351,3.0,8.0,68,0.00,,---,0.27,248.00,VWS V14.00,2013-07-12 20:00:00,
2013-07-12 16:03:00,75.4,63.3,30.09,NW,311,1.0,8.0,66,0.00,,---,0.00,160.00,VWS V14.00,2013-07-12 20:03:00,
2013-07-12 16:08:00,75.2,63.5,30.09,NW,311,0.0,8.0,67,0.00,,---,0.00,197.00,VWS V14.00,2013-07-12 20:08:00,
2013-07-12 16:13:00,74.8,63.5,30.09,NW,313,3.0,8.0,68,0.00,,---,0.00,308.00,VWS V14.00,2013-07-12 20:13:00,
2013-07-12 16:18:00,74.5,63.7,30.08,SSW,207,3.0,8.0,69,0.00,,---,0.00,729.00,VWS V14.00,2013-07-12 20:18:00,
2013-07-12 16:23:00,75.2,64.3,30.09,WNW,295,2.0,3.0,69,0.00,,---,0.00,722.00,VWS V14.00,2013-07-12 20:23:00,
2013-07-12 16:28:00,75.7,64.0,30.09,SW,229,1.0,3.0,67,0.00,,---,0.00,570.00,VWS V14.00,2013-07-12 20:28:00,
2013-07-12 16:30:00,69.8,58.8,29.88,NNE,17,8.0,9.0,68,0.00,,---,0.27,32.00,VWS V14.00,2013-07-12 20:30:00,
2013-07-12 16:33:00,75.5,63.8,30.09,SW,214,2.0,4.0,67,0.00,,---,0.00,555.00,VWS V14.00,2013-07-12 20:33:00,
2013-07-12 16:38:00,75.4,63.7,30.09,SSW,212,2.0,7.0,67,0.00,,---,0.00,638.00,VWS V14.00,2013-07-12 20:38:00,
2013-07-12 16:43:00,75.8,64.1,30.09,SW,232,0.0,7.0,67,0.00,,---,0.00,483.00,VWS V14.00,2013-07-12 20:43:00,
2013-07-12 16:49:00,75.9,63.7,30.09,NNW,332,3.0,7.0,66,0.00,,---,0.00,420.00,VWS V14.00,2013-07-12 20:49:00,
2013-07-12 16:54:00,75.5,63.8,30.09,NW,305,3.0,5.0,67,0.00,,---,0.00,410.00,VWS V14.00,2013-07-12 20:54:00,
2013-07-12 16:59:00,75.5,63.8,30.09,WSW,256,0.0,5.0,67,0.00,,---,0.00,408.00,VWS V14.00,2013-07-12 20:59:00,
2013-07-12 17:00:00,68.8,59.8,29.89,WNW,291,0.0,8.0,73,0.00,,---,0.27,21.00,VWS V14.00,2013-07-12 21:00:00,
2013-07-12 17:04:00,75.6,64.3,30.09,WSW,257,2.0,5.0,68,0.00,,---,0.00,406.00,VWS V14.00,2013-07-12 21:04:00,
2013-07-12 17:09:00,75.6,62.6,30.09,West,273,5.0,7.0,64,0.00,,---,0.00,420.00,VWS V14.00,2013-07-12 21:09:00,
2013-07-12 17:14:00,75.3,63.2,30.09,WNW,302,3.0,7.0,66,0.00,,---,0.00,494.00,VWS V14.00,2013-07-12 21:14:00,
2013-07-12 17:19:00,75.5,63.4,30.09,North,10,2.0,7.0,66,0.00,,---,0.00,422.00,VWS V14.00,2013-07-12 21:19:00,
2013-07-12 17:24:00,75.3,62.7,30.09,NNE,22,3.0,5.0,65,0.00,,---,0.00,339.00,VWS V14.00,2013-07-12 21:24:00,
2013-07-12 17:29:00,75.1,62.1,30.09,WNW,284,3.0,5.0,64,0.00,,---,0.00,294.00,VWS V14.00,2013-07-12 21:29:00,
2013-07-12 17:30:00,67.6,59.0,29.90,NW,309,0.0,5.0,74,0.00,,---,0.27,9.00,VWS V14.00,2013-07-12 21:30:00,
2013-07-12 17:34:00,74.9,62.8,30.09,WNW,300,4.0,7.0,66,0.00,,---,0.00,295.00,VWS V14.00,2013-07-12 21:34:00,
2013-07-12 17:39:00,74.6,62.9,30.09,WNW,295,6.0,7.0,67,0.00,,---,0.00,244.00,VWS V14.00,2013-07-12 21:39:00,
2013-07-12 17:44:00,74.3,61.8,30.09,NNW,338,4.0,8.0,65,0.00,,---,0.00,220.00,VWS V14.00,2013-07-12 21:44:00,
2013-07-12 17:50:00,73.9,61.4,30.09,NNW,336,3.0,8.0,65,0.00,,---,0.00,255.00,VWS V14.00,2013-07-12 21:50:00,
2013-07-12 17:55:00,73.7,61.7,30.09,West,271,4.0,7.0,66,0.00,,---,0.00,207.00,VWS V14.00,2013-07-12 21:55:00,
2013-07-12 18:00:00,73.5,61.5,30.09,West,273,4.0,7.0,66,0.00,,---,0.00,202.00,VWS V14.00,2013-07-12 22:00:00,
2013-07-12 18:05:00,73.0,61.0,30.09,WNW,295,7.0,7.0,66,0.00,,---,0.00,250.00,VWS V14.00,2013-07-12 22:05:00,
2013-07-12 18:10:00,72.6,61.0,30.09,WNW,288,5.0,7.0,67,0.00,,---,0.00,255.00,VWS V14.00,2013-07-12 22:10:00,
2013-07-12 18:15:00,72.6,61.0,30.09,WNW,290,2.0,7.0,67,0.00,,---,0.00,199.00,VWS V14.00,2013-07-12 22:15:00,
2013-07-12 18:20:00,72.6,61.4,30.09,WNW,295,1.0,7.0,68,0.00,,---,0.00,183.00,VWS V14.00,2013-07-12 22:20:00,
2013-07-12 18:26:00,72.6,61.4,30.09,WNW,300,3.0,5.0,68,0.00,,---,0.00,160.00,VWS V14.00,2013-07-12 22:26:00,
2013-07-12 18:30:00,62.6,59.0,29.92,SSW,200,0.0,2.0,88,0.00,,---,0.27,0.00,VWS V14.00,2013-07-12 22:30:00,
2013-07-12 18:31:00,72.6,61.9,30.09,WNW,300,0.0,5.0,69,0.00,,---,0.00,146.00,VWS V14.00,2013-07-12 22:31:00,
2013-07-12 18:36:00,72.6,61.0,30.09,NW,309,0.0,5.0,67,0.00,,---,0.00,144.00,VWS V14.00,2013-07-12 22:36:00,
2013-07-12 18:41:00,72.6,61.9,30.09,NW,309,2.0,5.0,69,0.00,,---,0.00,120.00,VWS V14.00,2013-07-12 22:41:00,
2013-07-12 18:46:00,72.3,61.2,30.09,NW,310,4.0,6.0,68,0.00,,---,0.00,125.00,VWS V14.00,2013-07-12 22:46:00,
2013-07-12 18:51:00,72.2,61.5,30.10,WNW,300,1.0,6.0,69,0.00,,---,0.00,114.00,VWS V14.00,2013-07-12 22:51:00,
2013-07-12 18:56:00,71.9,61.2,30.10,WNW,299,1.0,4.0,69,0.00,,---,0.00,105.00,VWS V14.00,2013-07-12 22:56:00,
2013-07-12 19:00:00,61.0,57.4,29.93,SSW,200,0.0,1.0,88,0.00,,---,0.27,0.00,VWS V14.00,2013-07-12 23:00:00,
2013-07-12 19:01:00,71.8,61.5,30.10,NNW,344,0.0,4.0,70,0.00,,---,0.00,98.00,VWS V14.00,2013-07-12 23:01:00,
2013-07-12 19:06:00,71.7,61.4,30.09,NNW,341,0.0,4.0,70,0.00,,---,0.00,90.00,VWS V14.00,2013-07-12 23:06:00,
2013-07-12 19:11:00,71.6,61.7,30.09,NNW,341,0.0,4.0,71,0.00,,---,0.00,79.00,VWS V14.00,2013-07-12 23:11:00,
2013-07-12 19:17:00,71.6,62.1,30.09,NNW,341,0.0,4.0,72,0.00,,---,0.00,84.00,VWS V14.00,2013-07-12 23:17:00,
2013-07-12 19:22:00,71.4,61.9,30.10,NNW,341,0.0,1.0,72,0.00,,---,0.00,81.00,VWS V14.00,2013-07-12 23:22:00,
2013-07-12 19:27:00,71.2,61.7,30.10,NNW,341,0.0,2.0,72,0.00,,---,0.00,77.00,VWS V14.00,2013-07-12 23:27:00,
2013-07-12 19:30:00,59.8,56.6,29.94,SSW,200,0.0,1.0,89,0.00,,---,0.27,0.00,VWS V14.00,2013-07-12 23:30:00,
2013-07-12 19:32:00,71.3,62.6,30.10,NNW,341,0.0,2.0,74,0.00,,---,0.00,74.00,VWS V14.00,2013-07-12 23:32:00,
2013-07-12 19:37:00,71.3,62.6,30.10,NNW,341,0.0,2.0,74,0.00,,---,0.00,69.00,VWS V14.00,2013-07-12 23:37:00,
2013-07-12 19:42:00,71.1,62.8,30.10,NNW,341,0.0,2.0,75,0.00,,---,0.00,67.00,VWS V14.00,2013-07-12 23:42:00,
2013-07-12 19:48:00,71.1,62.8,30.10,NNW,341,0.0,2.0,75,0.00,,---,0.00,62.00,VWS V14.00,2013-07-12 23:48:00,
2013-07-12 19:53:00,71.1,62.8,30.10,NNW,341,0.0,0.0,75,0.00,,---,0.00,53.00,VWS V14.00,2013-07-12 23:53:00,
2013-07-12 19:58:00,71.0,63.1,30.10,NNW,341,0.0,0.0,76,0.00,,---,0.00,49.00,VWS V14.00,2013-07-12 23:58:00,
2013-07-12 20:00:00,58.8,55.9,29.95,SSW,200,0.0,0.0,90,0.00,,---,0.27,0.00,VWS V14.00,2013-07-13 00:00:00,
2013-07-12 20:03:00,70.9,63.7,30.10,NNW,341,0.0,0.0,78,0.00,,---,0.00,44.00,VWS V14.00,2013-07-13 00:03:00,
2013-07-12 20:08:00,70.6,63.4,30.10,NNW,341,0.0,0.0,78,0.00,,---,0.00,39.00,VWS V14.00,2013-07-13 00:08:00,
2013-07-12 20:13:00,70.3,63.5,30.10,NNW,341,0.0,0.0,79,0.00,,---,0.00,35.00,VWS V14.00,2013-07-13 00:13:00,
2013-07-12 20:18:00,69.9,63.1,30.10,NNW,341,0.0,1.0,79,0.00,,---,0.00,26.00,VWS V14.00,2013-07-13 00:18:00,
2013-07-12 20:23:00,69.6,63.2,30.11,NNW,341,0.0,0.0,80,0.00,,---,0.00,21.00,VWS V14.00,2013-07-13 00:23:00,
2013-07-12 20:28:00,69.2,62.8,30.10,NNW,341,0.0,0.0,80,0.00,,---,0.00,12.00,VWS V14.00,2013-07-13 00:28:00,
2013-07-12 20:30:00,57.9,55.0,29.95,SSW,200,0.0,0.0,90,0.00,,---,0.27,0.00,VWS V14.00,2013-07-13 00:30:00,
2013-07-12 20:33:00,69.0,62.9,30.10,NNW,341,0.0,0.0,81,0.00,,---,0.00,5.00,VWS V14.00,2013-07-13 00:33:00,
2013-07-12 20:38:00,68.8,63.1,30.10,NNW,341,0.0,1.0,82,0.00,,---,0.00,0.00,VWS V14.00,2013-07-13 00:38:00,
2013-07-12 20:43:00,68.4,63.0,30.11,NNW,341,0.0,1.0,83,0.00,,---,0.00,7.00,VWS V14.00,2013-07-13 00:43:00,
2013-07-12 20:48:00,68.0,62.7,30.11,NNW,341,0.0,1.0,83,0.00,,---,0.00,0.00,VWS V14.00,2013-07-13 00:48:00,
2013-07-12 20:53:00,67.7,63.0,30.11,NNW,341,0.0,0.0,85,0.00,,---,0.00,0.00,VWS V14.00,2013-07-13 00:53:00,
2013-07-12 20:59:00,67.4,62.7,30.12,NNW,341,0.0,0.0,85,0.00,,---,0.00,0.00,VWS V14.00,2013-07-13 00:59:00,
2013-07-12 21:00:00,57.1,54.5,29.96,SSW,200,0.0,1.0,91,0.00,,---,0.27,0.00,VWS V14.00,2013-07-13 01:00:00,
2013-07-12 21:04:00,67.0,62.7,30.12,NNW,341,0.0,0.0,86,0.00,,---,0.00,0.00,VWS V14.00,2013-07-13 01:04:00,
2013-07-12 21:09:00,66.7,62.4,30.12,NNW,341,0.0,0.0,86,0.00,,---,0.00,0.00,VWS V14.00,2013-07-13 01:09:00,
2013-07-12 21:15:00,66.4,62.1,30.12,NNW,341,0.0,0.0,86,0.00,,---,0.00,0.00,VWS V14.00,2013-07-13 01:15:00,
2013-07-12 21:20:00,66.2,61.9,30.12,NNW,341,0.0,0.0,86,0.00,,---,0.00,0.00,VWS V14.00,2013-07-13 01:20:00,
2013-07-12 21:25:00,65.9,61.9,30.13,NNW,341,0.0,0.0,87,0.00,,---,0.00,0.00,VWS V14.00,2013-07-13 01:25:00,
2013-07-12 21:30:00,65.6,61.6,30.13,NNW,341,0.0,0.0,87,0.00,,---,0.00,0.00,VWS V14.00,2013-07-13 01:30:00,
2013-07-12 21:36:00,65.4,61.4,30.13,NNW,341,0.0,0.0,87,0.00,,---,0.00,0.00,VWS V14.00,2013-07-13 01:36:00,
2013-07-12 21:41:00,65.1,61.1,30.13,NNW,341,0.0,0.0,87,0.00,,---,0.00,0.00,VWS V14.00,2013-07-13 01:41:00,
2013-07-12 21:46:00,64.8,61.2,30.13,NNW,341,0.0,1.0,88,0.00,,---,0.00,0.00,VWS V14.00,2013-07-13 01:46:00,
2013-07-12 21:51:00,64.5,60.9,30.13,NNW,341,0.0,1.0,88,0.00,,---,0.00,0.00,VWS V14.00,2013-07-13 01:51:00,
2013-07-12 21:56:00,64.3,60.7,30.13,NNW,341,0.0,0.0,88,0.00,,---,0.00,0.00,VWS V14.00,2013-07-13 01:56:00,
2013-07-12 22:00:00,55.7,53.1,29.96,SSW,200,0.0,0.0,91,0.00,,---,0.27,0.00,VWS V14.00,2013-07-13 02:00:00,
2013-07-12 22:01:00,64.0,60.4,30.13,NNW,341,0.0,0.0,88,0.00,,---,0.00,0.00,VWS V14.00,2013-07-13 02:01:00,
2013-07-12 22:06:00,63.8,60.2,30.13,NNW,341,1.0,1.0,88,0.00,,---,0.00,0.00,VWS V14.00,2013-07-13 02:06:00,
2013-07-12 22:11:00,63.5,59.9,30.13,NNW,341,0.0,1.0,88,0.00,,---,0.00,0.00,VWS V14.00,2013-07-13 02:11:00,
2013-07-12 22:16:00,63.2,59.9,30.13,NNW,341,0.0,1.0,89,0.00,,---,0.00,0.00,VWS V14.00,2013-07-13 02:16:00,
2013-07-12 22:21:00,63.0,59.7,30.13,NNW,341,0.0,1.0,89,0.00,,---,0.00,0.00,VWS V14.00,2013-07-13 02:21:00,
2013-07-12 22:26:00,62.8,59.5,30.14,NNW,341,0.0,1.0,89,0.00,,---,0.00,0.00,VWS V14.00,2013-07-13 02:26:00,
2013-07-12 22:30:00,55.5,53.2,29.96,SSW,200,0.0,0.0,92,0.00,,---,0.27,0.00,VWS V14.00,2013-07-13 02:30:00,
2013-07-12 22:31:00,62.6,59.3,30.14,NNW,341,0.0,1.0,89,0.00,,---,0.00,0.00,VWS V14.00,2013-07-13 02:31:00,
2013-07-12 22:36:00,62.3,59.0,30.14,NNW,341,0.0,1.0,89,0.00,,---,0.00,0.00,VWS V14.00,2013-07-13 02:36:00,
2013-07-12 22:41:00,62.2,58.9,30.14,NNW,341,0.0,1.0,89,0.00,,---,0.00,0.00,VWS V14.00,2013-07-13 02:41:00,
2013-07-12 22:47:00,61.9,58.6,30.14,NNW,341,0.0,1.0,89,0.00,,---,0.00,0.00,VWS V14.00,2013-07-13 02:47:00,
2013-07-12 22:52:00,61.7,58.4,30.14,NNW,344,0.0,1.0,89,0.00,,---,0.00,0.00,VWS V14.00,2013-07-13 02:52:00,
2013-07-12 22:57:00,61.3,58.0,30.14,ENE,68,1.0,3.0,89,0.00,,---,0.00,0.00,VWS V14.00,2013-07-13 02:57:00,
2013-07-12 23:00:00,55.4,53.1,29.97,SSW,200,0.0,1.0,92,0.00,,---,0.27,0.00,VWS V14.00,2013-07-13 03:00:00,
2013-07-12 23:02:00,61.2,58.2,30.14,ESE,102,3.0,3.0,90,0.00,,---,0.00,0.00,VWS V14.00,2013-07-13 03:02:00,
2013-07-12 23:07:00,61.2,58.2,30.15,ESE,107,0.0,4.0,90,0.00,,---,0.00,0.00,VWS V14.00,2013-07-13 03:07:00,
2013-07-12 23:12:00,61.2,58.2,30.15,ESE,107,1.0,4.0,90,0.00,,---,0.00,0.00,VWS V14.00,2013-07-13 03:12:00,
2013-07-12 23:17:00,61.3,58.3,30.15,ESE,107,2.0,4.0,90,0.00,,---,0.00,0.00,VWS V14.00,2013-07-13 03:17:00,
2013-07-12 23:22:00,61.1,58.2,30.15,ESE,107,0.0,1.0,90,0.00,,---,0.00,0.00,VWS V14.00,2013-07-13 03:22:00,
2013-07-12 23:27:00,61.1,58.2,30.15,ESE,107,0.0,2.0,90,0.00,,---,0.00,0.00,VWS V14.00,2013-07-13 03:27:00,
2013-07-12 23:30:00,55.0,52.7,29.98,SSW,200,0.0,4.0,92,0.00,,---,0.27,0.00,VWS V14.00,2013-07-13 03:30:00,
2013-07-12 23:32:00,61.2,58.2,30.15,ESE,107,0.0,2.0,90,0.00,,---,0.00,0.00,VWS V14.00,2013-07-13 03:32:00,
2013-07-12 23:37:00,61.1,58.2,30.15,East,93,0.0,3.0,90,0.00,,---,0.00,0.00,VWS V14.00,2013-07-13 03:37:00,
2013-07-12 23:42:00,61.2,58.2,30.16,East,93,0.0,3.0,90,0.00,,---,0.00,0.00,VWS V14.00,2013-07-13 03:42:00,
2013-07-12 23:47:00,61.0,58.0,30.16,East,93,0.0,3.0,90,0.00,,---,0.00,0.00,VWS V14.00,2013-07-13 03:47:00,
2013-07-12 23:53:00,60.8,57.8,30.16,East,93,0.0,0.0,90,0.00,,---,0.00,0.00,VWS V14.00,2013-07-13 03:53:00,
2013-07-12 23:58:00,60.8,57.8,30.16,East,93,1.0,1.0,90,0.00,,---,0.00,0.00,VWS V14.00,2013-07-13 03:58:00,